Location: Clanezzo
(45.7500°N, 9.6000°E)
Time: 04:21:23
(UTC+00:00)

NOSS 3-4 (C) - Pass Details

Date: 12 May 2021
Orbit: 873 x 1339 km, 63.4° (Epoch: 06 May)

Event Time Altitude Azimuth Distance (km) Brightness Sun altitude
Rises 20:26:14 0° 321° (NW) 3,790 8.5 -15.0°
Reaches altitude 10° 20:28:46 10° 324° (NW) 2,898 7.4 -15.3°
Maximum altitude 20:35:41 70° 48° (NE) 1,228 4.0 -16.1°
Enters shadow 20:40:50 23° 128° (SE) 2,352 4.9 -16.7°
